Regional Weather Roundup
Issued by NWS

Home | Current Version | Previous Version | Graphics & Text | Print | Product List | Glossary On
Versions: 1 2 3 4 5 6 7 8 9 10 11 12 13 14 15 16 17 18 19 20 21 22 23 24 25 26 27 28 29 30 31 32 33 34 35 36 37 38 39 40 41 42 43 44 45 46 47 48 49 50
000
ASUS43 KLMK 241902
RWRKY
KENTUCKY REGIONAL WEATHER ROUNDUP
NATIONAL WEATHER SERVICE LOUISVILLE KY
200 PM EST SAT FEB 24 2018

NOTE "FAIR" INDICATES FEW OR NO CLOUDS BELOW 12,000 FEET
WITH NO SIGNIFICANT WEATHER AND/OR OBSTRUCTIONS TO VISIBILITY.

KYZ001>023-026-027-061>063-070>075-242000-
WESTERN AND SOUTH CENTRAL KENTUCKY

CITY           SKY/WX    TMP DP  RH WIND       PRES   REMARKS
PADUCAH        LGT RAIN  57  55  93 CALM      29.86F
HENDERSON      LGT RAIN  53  52  96 E9        29.89F
OWENSBORO      LGT RAIN  53  52  96 E14       29.90F FOG
HOPKINSVILLE   DRIZZLE   70  64  82 S8        29.89F
BOWLING GREEN  PTSUNNY   73  64  73 S13       29.92F
GLASGOW        NOT AVBL
$$

KYZ024-025-028>034-038-045-046-053-242000-
NORTH CENTRAL KENTUCKY

CITY           SKY/WX    TMP DP  RH WIND       PRES   REMARKS
LOUISVILLE/SDF CLOUDY    55  52  89 SE13      29.95F
LOUISVILLE/LOU CLOUDY    55  53  93 E10G18    29.96F
FORT KNOX      CLOUDY    52  52 100 E13       29.95F
$$

KYZ035>037-039>044-047>052-055>060-089>105-242000-
NORTHEAST KENTUCKY

CITY           SKY/WX    TMP DP  RH WIND       PRES   REMARKS
LEXINGTON      CLOUDY    53  49  86 NE13      30.00F
COVINGTON      CLOUDY    53  51  93 E9        29.98F
FRANKFORT      CLOUDY    52  48  86 E9        29.98F
$$

KYZ054-064>069-076>088-106>120-242000-
SOUTHEAST KENTUCKY

CITY           SKY/WX    TMP DP  RH WIND       PRES   REMARKS
JACKSON        CLOUDY    64  62  93 CALM      30.01F
LONDON         LGT RAIN  66  63  90 S9        30.01F
SOMERSET       NOT AVBL
MIDDLESBORO    RAIN      67  61  80 S6        30.03F
MONTICELLO     MOCLDY    72  63  73 S8G22     30.01F
$$





USA.gov is the U.S. government's official web portal to all federal, state and local government web resources and services.